Location: Asni�res
(49.1337°N, 2.3555°E)
Time: 17:28:46
(UTC+00:00)

SL-16 DEB - Visible Passes

Search period start: 11 August 2022 00:00
Search period end: 21 August 2022 00:00
Orbit: 844 x 1146 km, 71.0° (Epoch: 10 August)

Date Brightness Start Highest point End Pass type
(mag) Time Alt. Az. Time Alt. Az. Time Alt. Az.
11 Aug ? 00:11:58 10° NW 00:17:28 47° WSW 00:17:29 47° WSW visible
11 Aug ? 21:09:22 10° N 21:13:08 17° NNE 21:16:47 10° ENE visible
11 Aug ? 22:56:02 10° NNW 23:01:49 64° ENE 23:03:04 50° ESE visible
12 Aug ? 00:44:18 10° NW 00:48:07 23° W 00:48:07 23° W visible
12 Aug ? 21:40:36 10° NNW 21:45:31 27° NE 21:48:40 17° E visible
12 Aug ? 23:27:43 10° NNW 23:33:25 66° WSW 23:33:44 65° SW visible
13 Aug ? 20:25:33 10° N 20:28:31 14° NNE 20:31:25 10° ENE visible
13 Aug ? 22:11:59 10° NNW 22:17:34 47° NE 22:19:23 35° E visible
13 Aug ? 23:59:44 10° NW 00:04:25 32° W 00:04:25 32° W visible
14 Aug ? 20:56:39 10° N 21:01:02 21° NE 21:05:02 11° E visible
14 Aug ? 22:43:31 10° NNW 22:49:18 89° ENE 22:50:06 68° SSE visible
15 Aug ? 00:32:37 10° WNW 00:35:09 15° W 00:35:09 15° W visible
15 Aug ? 19:41:55 10° N 19:43:50 12° NNE 19:45:44 10° NE visible
15 Aug ? 21:27:56 10° NNW 21:33:14 35° NE 21:35:48 24° E visible
15 Aug ? 23:15:21 10° NW 23:20:45 46° WSW 23:20:51 45° WSW visible
16 Aug ? 20:12:45 10° N 20:16:29 17° NNE 20:20:08 10° ENE visible
16 Aug ? 21:59:23 10° NNW 22:05:07 66° ENE 22:06:34 48° ESE visible
16 Aug ? 23:47:41 10° NW 23:51:37 22° W 23:51:37 22° W visible
17 Aug ? 20:43:57 10° NNW 20:48:50 27° NE 20:52:19 16° E visible
17 Aug ? 22:31:04 10° NNW 22:36:43 65° WSW 22:37:22 59° SSW visible
18 Aug ? 21:15:19 10° NNW 21:20:52 48° NE 21:23:09 31° ESE visible
18 Aug ? 23:03:06 10° NW 23:08:02 31° WSW 23:08:12 31° WSW visible
19 Aug ? 20:00:01 10° N 20:04:22 22° NE 20:08:38 10° E visible
19 Aug ? 21:46:51 10° NNW 21:52:36 89° WSW 21:54:01 53° SSE visible
19 Aug ? 23:36:02 10° WNW 23:39:04 15° W 23:39:04 15° W visible
20 Aug ? 20:31:16 10° NNW 20:36:33 36° NE 20:39:50 20° ESE visible
20 Aug ? 22:18:41 10° NW 22:24:02 44° WSW 22:24:54 41° SW visible
